STARLINK-33973, 63894

Orbit data source: Space-Track

STARLINK-33973, 63894 is a payload satellite owned by SpaceX/Seattle (US) in LEO that was launched on Sat, 10 May 2025 UTC via an FALCON 9 launch vehicle from the Air Force Eastern Test Range (AFETR). Payload-class satellites include a variety of spacecraft equipped with specific instruments for various scientific and technological missions. These include communications satellites like Starlink; space stations such as the ISS; scientific satellites like the Hubble; Earth observation satellites from companies like Planet Labs, Umbra, and HawkEye 360; GPS; miniature CubeSats for education and research; and military/defense satellites.

Loading next visibility...
Identifier
63894, 2025-095E
Orbit
LEO
Country
Flag of USUS
Related business
Manufacturer
SpaceX/Seattle
Mission
Operational Commercial Communications
Bus & Motor
STARLINK V2MO, Unknown motor
Mass
575 kg wet, ~530 kg dry
Launch date (UTC)
2025-05-10 (1 year ago)
Launch vehicle
FALCON 9
Launch site
Air Force Eastern Test Range (AFETR)
Object type
Payload
Rocket body
Debris
Shape & HBR
Box + 2 Pan, 17.7 m
Radar Cross Section
36.964 m², Large (>1 m²)

Expand to show TLE details & history
Last TLE update: 10 hours ago

TLE from 10 hours ago
0 STARLINK-33973
1 63894U 25095E   26171.41864733  .00013968  00000-0  51602-3 0  9998
2 63894  42.9983 315.6477 0002049 283.3836  76.6787 15.27588357 63504
Epoch: 2026-06-20T10:02Z
TLE epoch observation values (Epoch: 2026-06-20T10:02:51.129Z)
Latitude
-0.00002°
Longitude
-103.69891°
Altitude
482.476 km
Speed
7.626 km/s
True Right ascension
21h 02m 35s
True Declination
0° 00' 00"
Sunlit
Object was in full shadow at epoch
Visualization orbit readout
Latitude
Unknown
Longitude
Unknown
Altitude
Unknown
Speed
Unknown
Apparent Right ascension
Unknown
Apparent Declination
Unknown
Sunlit
N/A
Visualization observer readout
Local Sidereal Time
07:18:27
Azimuth
Unknown
Elevation
Unknown
Doppler factor
Unknown
Orbital elements
Apogee altitude
486.376 km
Perigee altitude
483.563 km
Semi-major axis
6,863.107 km
Eccentricity
0.0002
Inclination
42.9983°
RAAN
315.6477°
Arg. of periapsis
283.3836°
True anomaly
76.70155°
Mean anomaly
76.6787°
Eccentric anomaly
76.69012°
Mean motion
3.81735 °/min
Orbital period
94.31 mins
BSTAR
0.00051602
Loading maneuver chart data...
Computing Atmospheric mass density...
Loading historical data...
Loading historical data...
Loading historical data...
Loading historical data...
Loading historical data...
Loading historical data...
Loading historical data...

Documentation

Showing up to 5 results
|